When you browse on this site, cookies collect data to enhance your experience and personalize the content and advertising you see.
Visit our Privacy Policy to learn more. By continuing to use the site, you agree to this use of cookies and data.
  • In United Kingdom
  • List of Countries
  • For 7 days
  • Water Temperature
  • Weather Map
  • Weather Widgets
  • user-avatar
    Login

    Hourly Weather Digah

    Today, 19 September, Thursday

    Time Temperature Precipitation Wind Pressure Humidity
    00:00 +24°C° 0 mm 8 mps 756 mmHg 76%
    01:00 +24°C° 0 mm 8 mps 756 mmHg 74%
    02:00 +24°C° 0 mm 8 mps 756 mmHg 73%
    03:00 +24°C° 0 mm 8 mps 756 mmHg 73%
    04:00 +24°C° 0 mm 7 mps 756 mmHg 72%
    05:00 +23°C° 0 mm 7 mps 756 mmHg 72%
    06:00 +23°C° 0 mm 6 mps 756 mmHg 71%
    07:00 +25°C° 0 mm 5 mps 756 mmHg 64%
    08:00 +27°C° 0 mm 4 mps 757 mmHg 56%
    09:00 +28°C° 0 mm 4 mps 757 mmHg 49%
    10:00 +28°C° 0 mm 6 mps 757 mmHg 51%
    11:00 +28°C° 0 mm 9 mps 757 mmHg 53%
    12:00 +28°C° 0 mm 11 mps 758 mmHg 55%
    13:00 +27°C° 0 mm 12 mps 758 mmHg 60%
    14:00 +27°C° 0 mm 13 mps 758 mmHg 64%
    15:00 +26°C° 0 mm 14 mps 758 mmHg 68%
    16:00 +26°C° 0 mm 13 mps 758 mmHg 71%
    17:00 +24°C° 0 mm 12 mps 758 mmHg 75%
    18:00 +23°C° 0 mm 12 mps 759 mmHg 78%
    19:00 +23°C° 0 mm 11 mps 759 mmHg 78%
    20:00 +23°C° 0 mm 11 mps 759 mmHg 78%
    21:00 +23°C° 0 mm 11 mps 759 mmHg 78%
    22:00 +22°C° 0 mm 10 mps 759 mmHg 77%
    23:00 +22°C° 0 mm 10 mps 759 mmHg 76%

    Tomorrow, 20 September, Friday

    Time Temperature Precipitation Wind Pressure Humidity
    00:00 +22°C° 0 mm 10 mps 759 mmHg 75%
    01:00 +22°C° 0 mm 10 mps 759 mmHg 74%
    02:00 +22°C° 0 mm 10 mps 758 mmHg 73%
    03:00 +21°C° 0 mm 9 mps 758 mmHg 72%
    04:00 +21°C° 0 mm 9 mps 758 mmHg 71%
    05:00 +21°C° 0 mm 9 mps 758 mmHg 71%
    06:00 +21°C° 0 mm 8 mps 758 mmHg 71%
    07:00 +22°C° 0 mm 8 mps 758 mmHg 67%
    08:00 +22°C° 0 mm 7 mps 758 mmHg 64%
    09:00 +23°C° 0 mm 7 mps 758 mmHg 61%
    10:00 +23°C° 0 mm 6 mps 757 mmHg 59%
    11:00 +25°C° 0 mm 4 mps 757 mmHg 56%
    12:00 +25°C° 0 mm 3 mps 756 mmHg 53%
    13:00 +26°C° 0 mm 3 mps 756 mmHg 51%
    14:00 +27°C° 0 mm 2 mps 755 mmHg 49%
    15:00 +27°C° 0 mm 2 mps 754 mmHg 47%
    16:00 +27°C° 0 mm 2 mps 754 mmHg 49%
    17:00 +26°C° 0 mm 2 mps 754 mmHg 52%
    18:00 +25°C° 0 mm 2 mps 754 mmHg 55%
    19:00 +25°C° 0 mm 2 mps 754 mmHg 59%
    20:00 +25°C° 0 mm 2 mps 753 mmHg 63%
    21:00 +24°C° 0 mm 3 mps 753 mmHg 66%
    22:00 +24°C° 0 mm 3 mps 753 mmHg 69%
    23:00 +24°C° 0 mm 3 mps 752 mmHg 71%

    Day after tomorrow, 21 September, Saturday

    Time Temperature Precipitation Wind Pressure Humidity
    00:00 +24°C° 0 mm 3 mps 752 mmHg 74%
    01:00 +22°C° 0 mm 3 mps 752 mmHg 75%
    02:00 +22°C° 0 mm 3 mps 751 mmHg 76%
    03:00 +22°C° 0 mm 3 mps 751 mmHg 76%
    04:00 +22°C° 0 mm 4 mps 751 mmHg 75%
    05:00 +21°C° 0 mm 6 mps 751 mmHg 73%
    06:00 +21°C° 0 mm 7 mps 751 mmHg 71%
    07:00 +21°C° 0 mm 9 mps 752 mmHg 68%
    08:00 +22°C° 0 mm 10 mps 752 mmHg 65%
    09:00 +23°C° 0 mm 12 mps 753 mmHg 62%
    10:00 +22°C° 0 mm 13 mps 753 mmHg 62%
    11:00 +22°C° 0 mm 14 mps 753 mmHg 61%
    12:00 +22°C° 0 mm 16 mps 753 mmHg 61%
    13:00 +22°C° 0 mm 16 mps 753 mmHg 63%
    14:00 +20°C° 0 mm 16 mps 753 mmHg 65%
    15:00 +20°C° 0 mm 17 mps 753 mmHg 67%
    16:00 +20°C° 0 mm 17 mps 753 mmHg 70%
    17:00 +19°C° 0 mm 17 mps 754 mmHg 72%
    18:00 +18°C° 0 mm 17 mps 754 mmHg 75%
    19:00 +18°C° 0.2 mm 17 mps 755 mmHg 74%
    20:00 +18°C° 0.2 mm 17 mps 756 mmHg 74%
    21:00 +16°C° 0.2 mm 17 mps 757 mmHg 73%
    22:00 +16°C° 0.2 mm 16 mps 758 mmHg 72%
    23:00 +15°C° 0.2 mm 16 mps 758 mmHg 71%

    22 September, Sunday

    Time Temperature Precipitation Wind Pressure Humidity
    00:00 +15°C° 0.2 mm 15 mps 759 mmHg 70%
    01:00 +15°C° 0.1 mm 14 mps 759 mmHg 68%
    02:00 +14°C° 0.1 mm 13 mps 760 mmHg 66%
    03:00 +14°C° 0.1 mm 12 mps 761 mmHg 63%
    04:00 +16°C° 0 mm 10 mps 761 mmHg 60%
    05:00 +16°C° 0 mm 8 mps 761 mmHg 57%
    06:00 +17°C° 0 mm 6 mps 762 mmHg 55%
    07:00 +17°C° 0 mm 6 mps 763 mmHg 52%
    08:00 +19°C° 0 mm 6 mps 763 mmHg 50%
    09:00 +19°C° 0 mm 6 mps 764 mmHg 48%
    10:00 +20°C° 0 mm 5 mps 764 mmHg 47%
    11:00 +20°C° 0 mm 5 mps 764 mmHg 45%
    12:00 +20°C° 0 mm 4 mps 763 mmHg 44%
    13:00 +20°C° 0 mm 4 mps 763 mmHg 44%
    14:00 +20°C° 0 mm 4 mps 763 mmHg 43%
    15:00 +21°C° 0 mm 3 mps 762 mmHg 42%
    16:00 +20°C° 0 mm 4 mps 762 mmHg 45%
    17:00 +20°C° 0 mm 5 mps 762 mmHg 48%
    18:00 +20°C° 0 mm 5 mps 761 mmHg 50%
    19:00 +20°C° 0 mm 5 mps 761 mmHg 53%
    20:00 +20°C° 0 mm 5 mps 761 mmHg 55%
    21:00 +20°C° 0 mm 5 mps 761 mmHg 58%
    22:00 +20°C° 0 mm 4 mps 761 mmHg 59%
    23:00 +20°C° 0 mm 4 mps 761 mmHg 61%

    23 September, Monday

    Time Temperature Precipitation Wind Pressure Humidity
    00:00 +20°C° 0 mm 4 mps 761 mmHg 62%
    01:00 +20°C° 0 mm 3 mps 761 mmHg 64%
    02:00 +19°C° 0 mm 3 mps 761 mmHg 66%
    03:00 +19°C° 0 mm 2 mps 760 mmHg 67%
    04:00 +19°C° 0.1 mm 2 mps 761 mmHg 67%
    05:00 +19°C° 0.1 mm 2 mps 761 mmHg 66%
    06:00 +20°C° 0.1 mm 2 mps 761 mmHg 65%
    07:00 +20°C° 0.1 mm 3 mps 761 mmHg 63%
    08:00 +20°C° 0.1 mm 5 mps 762 mmHg 61%
    09:00 +20°C° 0.1 mm 6 mps 762 mmHg 58%
    10:00 +20°C° 0 mm 6 mps 762 mmHg 59%
    11:00 +21°C° 0 mm 7 mps 762 mmHg 60%
    12:00 +21°C° 0 mm 7 mps 762 mmHg 61%
    13:00 +21°C° 0 mm 7 mps 762 mmHg 62%
    14:00 +21°C° 0 mm 6 mps 761 mmHg 63%
    15:00 +20°C° 0 mm 5 mps 761 mmHg 64%
    16:00 +20°C° 0 mm 5 mps 761 mmHg 64%
    17:00 +20°C° 0 mm 5 mps 761 mmHg 64%
    18:00 +20°C° 0 mm 5 mps 761 mmHg 64%
    19:00 +20°C° 0 mm 4 mps 762 mmHg 62%
    20:00 +21°C° 0 mm 4 mps 762 mmHg 60%
    21:00 +21°C° 0 mm 4 mps 762 mmHg 58%
    22:00 +21°C° 0 mm 4 mps 762 mmHg 58%
    23:00 +21°C° 0 mm 4 mps 762 mmHg 57%

    24 September, Tuesday

    Time Temperature Precipitation Wind Pressure Humidity
    00:00 +21°C° 0 mm 5 mps 762 mmHg 57%
    01:00 +21°C° 0 mm 5 mps 762 mmHg 57%
    02:00 +21°C° 0 mm 5 mps 762 mmHg 57%
    03:00 +21°C° 0 mm 5 mps 761 mmHg 58%
    04:00 +20°C° 0 mm 5 mps 761 mmHg 61%
    05:00 +20°C° 0 mm 4 mps 761 mmHg 64%
    06:00 +20°C° 0 mm 4 mps 761 mmHg 67%
    07:00 +21°C° 0 mm 4 mps 761 mmHg 65%
    08:00 +21°C° 0 mm 4 mps 761 mmHg 62%
    09:00 +22°C° 0 mm 5 mps 761 mmHg 59%
    10:00 +22°C° 0 mm 4 mps 761 mmHg 57%
    11:00 +23°C° 0 mm 4 mps 761 mmHg 55%
    12:00 +25°C° 0 mm 4 mps 760 mmHg 53%
    13:00 +25°C° 0 mm 5 mps 759 mmHg 52%
    14:00 +25°C° 0 mm 5 mps 759 mmHg 52%
    15:00 +25°C° 0 mm 5 mps 758 mmHg 52%
    16:00 +25°C° 0 mm 5 mps 758 mmHg 55%
    17:00 +23°C° 0 mm 5 mps 757 mmHg 57%
    18:00 +22°C° 0 mm 5 mps 757 mmHg 60%
    19:00 +22°C° 0 mm 5 mps 757 mmHg 61%
    20:00 +22°C° 0 mm 6 mps 757 mmHg 63%
    21:00 +22°C° 0 mm 6 mps 757 mmHg 64%
    22:00 +22°C° 0 mm 6 mps 756 mmHg 65%
    23:00 +22°C° 0 mm 6 mps 756 mmHg 67%
    Show more